Vorticity
9 8 8 8 7 7 7 7 7 6 6 6 5 6 6 7 9 10 11 12 13 13 14 14 14 14 13 13 13 12 12 12 12 12 11 12 12 11 11 11 11 12
10 10 9 9 9 8 8 8 8 7 7 7 6 6 6 6 7 8 8 9 9 9 10 10 11 11 12 12 12 12 12 12 12 12 12 13 13 12 13 12 12 12
8 7 7 6 5 5 4 4 4 4 4 4 4 5 5 6 7 9 9 10 10 10 9 9 9 9 9 9 9 10 10 11 11 12 12 12 13 13 13 13 13 13
6 5 5 4 4 3 3 3 3 3 3 4 5 5 6 7 8 9 9 10 10 10 10 10 9 9 9 9 10 10 10 10 10 11 12 12 13 13 13 13 13 13
4 3 3 3 3 4 4 4 5 6 7 7 8 8 9 9 9 9 9 9 9 10 10 10 11 11 11 12 12 12 13 13 13 14 14 14 14 14 14 15 14 15
3 3 3 4 4 5 5 6 7 7 8 8 9 9 10 10 11 11 11 12 12 12 13 13 14 15 16 16 17 17 17 17 16 17 17 17 17 18 17 17 16 17
6 6 6 6 6 6 6 7 7 8 8 9 10 12 13 14 15 16 17 18 19 19 19 20 20 20 21 21 21 21 21 21 20 20 20 20 20 20 20 19 17 17
7 8 8 8 9 8 9 9 10 11 13 14 16 18 20 22 23 24 25 26 26 26 26 26 26 26 25 25 24 23 22 21 20 19 19 19 20 20 19 18 16 15
9 9 10 10 11 12 14 16 18 19 21 23 25 27 29 29 31 32 32 32 31 31 31 31 30 28 27 26 25 23 22 20 18 17 16 15 16 17 17 17 16 14
10 10 11 14 17 21 24 27 30 32 33 34 35 35 35 35 34 34 33 32 32 32 32 30 29 28 26 24 22 21 19 17 16 15 14 14 15 17 17 17 18 17
15 19 23 28 31 34 35 35 35 35 34 34 33 31 31 30 28 27 26 25 24 24 24 25 25 24 23 21 19 18 16 15 15 17 16 15 16 16 15 15 18 20
30 34 35 35 34 32 30 28 27 25 23 23 22 21 21 20 18 18 19 17 15 15 17 19 20 20 21 20 17 15 15 14 15 18 19 16 14 13 13 13 15 19
32 29 27 25 23 22 21 20 20 19 18 18 17 16 18 17 14 15 16 13 12 14 16 18 18 18 17 17 16 14 13 14 15 17 17 15 14 14 14 13 13 16
22 20 20 20 20 20 20 20 20 19 18 18 17 16 18 17 14 14 14 14 14 15 16 17 17 16 15 14 13 12 12 13 15 16 16 14 13 13 13 11 10 11
20 20 20 21 21 21 21 20 20 19 19 19 17 15 15 15 14 13 13 14 15 16 17 17 15 13 12 11 11 10 11 14 15 15 14 13 11 11 10 9 8 7
21 21 21 21 21 20 20 20 19 18 18 19 18 15 13 11 11 11 12 13 14 14 16 18 17 14 10 9 10 10 11 13 15 16 15 12 10 8 7 8 8 8
20 20 19 18 18 18 18 18 18 18 17 18 19 18 14 11 8 7 8 10 11 11 13 16 17 17 14 11 10 10 10 11 13 15 15 13 11 8 6 7 8 9
17 16 15 15 14 14 15 15 16 17 17 17 19 19 18 15 10 6 6 7 7 9 12 14 15 16 17 16 14 13 12 10 9 12 14 13 11 9 8 8 9 10
15 15 14 13 13 12 13 13 13 15 15 16 17 18 19 20 16 11 8 6 5 5 7 10 13 14 16 16 16 16 17 12 8 9 12 11 12 11 10 11 11 11
15 15 14 14 14 13 13 13 12 13 14 14 15 15 16 18 19 17 14 11 9 7 5 5 8 12 15 17 16 16 19 18 12 10 12 11 12 13 12 11 12 12
15 16 15 15 15 14 14 13 13 12 12 13 14 13 14 14 15 16 17 17 15 13 10 7 5 6 8 13 16 16 19 19 14 12 13 13 14 15 14 14 13 12
15 15 15 15 15 15 14 14 14 13 13 13 13 13 13 13 12 12 12 14 15 14 13 10 8 6 5 5 9 13 17 18 16 14 12 13 15 17 16 17 16 15
14 14 15 15 14 14 14 14 14 14 14 14 14 13 13 13 12 11 10 10 11 12 13 12 11 10 8 5 4 6 11 15 16 16 13 10 12 15 17 18 17 17
13 14 14 14 15 14 14 14 14 14 14 14 14 14 15 14 13 13 12 10 8 8 9 11 12 11 11 9 6 4 5 7 11 14 15 11 8 9 13 15 15 15
13 13 13 14 14 15 15 15 15 14 14 14 14 14 15 15 15 15 14 13 12 9 7 7 8 9 11 12 11 9 6 4 4 5 9 11 8 6 7 10 11 12
13 14 14 14 14 15 16 16 16 15 14 14 14 14 14 15 16 16 16 16 16 15 13 11 8 6 7 8 10 11 11 10 6 3 3 4 4 3 4 6 8 9
Height
5573 5571 5570 5568 5566 5564 5563 5561 5559 5558 5556 5554 5553 5551 5550 5548 5547 5546 5544 5543 5543 5542 5541 5541 5540 5539 5539 5538 5538 5538 5538 5539 5539 5539 5540 5541 5541 5542 5542 5542 5543 5544
5559 5557 5555 5553 5552 5550 5548 5547 5545 5544 5542 5541 5540 5538 5536 5535 5534 5532 5531 5530 5529 5528 5527 5527 5527 5526 5526 5525 5526 5525 5525 5525 5525 5525 5526 5527 5528 5529 5529 5529 5530 5531
5544 5542 5541 5539 5537 5535 5534 5532 5531 5529 5528 5526 5525 5524 5522 5521 5519 5518 5517 5516 5515 5514 5513 5513 5512 5512 5512 5512 5512 5512 5512 5512 5511 5512 5513 5513 5514 5515 5515 5516 5516 5517
5530 5528 5526 5523 5522 5520 5518 5516 5515 5513 5512 5511 5509 5508 5507 5505 5504 5503 5502 5501 5500 5499 5498 5498 5497 5497 5497 5496 5497 5497 5497 5497 5497 5498 5499 5499 5500 5501 5501 5502 5503 5503
5516 5514 5511 5509 5506 5504 5502 5500 5498 5496 5495 5494 5492 5491 5490 5488 5488 5487 5486 5485 5484 5483 5482 5482 5482 5481 5481 5481 5481 5481 5481 5481 5482 5483 5485 5485 5486 5487 5487 5488 5489 5490
5502 5499 5496 5494 5491 5489 5487 5484 5482 5480 5479 5477 5475 5474 5472 5471 5470 5469 5469 5468 5467 5466 5466 5465 5465 5465 5465 5464 5464 5465 5465 5465 5465 5467 5469 5470 5471 5472 5473 5474 5475 5476
5486 5483 5480 5478 5475 5472 5470 5468 5466 5464 5462 5460 5458 5457 5455 5454 5453 5452 5451 5451 5450 5449 5449 5449 5448 5448 5448 5448 5448 5448 5449 5449 5450 5451 5453 5454 5456 5457 5459 5460 5461 5462
5472 5468 5465 5462 5459 5457 5454 5451 5449 5447 5445 5443 5441 5440 5438 5437 5436 5435 5434 5433 5433 5432 5432 5432 5432 5432 5432 5432 5433 5433 5434 5434 5435 5436 5438 5440 5442 5443 5445 5446 5447 5449
5458 5454 5451 5447 5444 5442 5439 5436 5433 5431 5429 5427 5425 5424 5422 5421 5419 5418 5417 5417 5417 5416 5416 5415 5416 5416 5417 5417 5418 5419 5420 5421 5422 5423 5425 5426 5428 5430 5431 5433 5435 5436
5444 5440 5437 5433 5430 5427 5424 5422 5419 5417 5414 5413 5411 5409 5408 5406 5405 5404 5403 5402 5402 5402 5401 5401 5401 5402 5403 5404 5405 5407 5408 5409 5410 5412 5413 5415 5416 5418 5420 5421 5423 5424
5430 5427 5423 5420 5417 5414 5411 5408 5406 5403 5401 5400 5398 5397 5396 5394 5393 5392 5391 5390 5390 5390 5390 5390 5390 5390 5392 5393 5394 5395 5397 5398 5400 5401 5402 5404 5406 5407 5409 5410 5412 5413
5417 5413 5410 5407 5404 5401 5398 5396 5394 5392 5390 5389 5387 5386 5385 5384 5383 5381 5381 5380 5380 5380 5380 5380 5380 5380 5381 5383 5384 5385 5387 5388 5390 5391 5392 5394 5395 5397 5399 5400 5402 5403
5404 5401 5398 5395 5392 5390 5387 5385 5383 5381 5379 5378 5377 5376 5375 5374 5373 5372 5371 5371 5370 5370 5370 5371 5371 5371 5372 5373 5374 5376 5378 5379 5380 5381 5382 5384 5385 5387 5388 5390 5391 5392
5392 5389 5386 5383 5381 5378 5376 5374 5372 5370 5369 5368 5367 5366 5365 5364 5363 5363 5362 5361 5361 5361 5361 5361 5362 5362 5363 5364 5365 5367 5369 5370 5370 5372 5373 5374 5375 5376 5378 5380 5381 5383
5380 5377 5375 5372 5370 5367 5365 5363 5362 5360 5359 5358 5357 5356 5355 5355 5354 5354 5353 5352 5352 5351 5351 5352 5352 5353 5354 5354 5356 5359 5360 5360 5361 5362 5363 5364 5365 5366 5368 5370 5371 5373
5370 5367 5364 5361 5359 5357 5355 5353 5352 5350 5349 5348 5347 5346 5346 5345 5345 5344 5344 5343 5343 5342 5342 5342 5343 5343 5344 5345 5346 5349 5351 5351 5351 5352 5353 5354 5355 5356 5358 5360 5361 5363
5360 5357 5354 5351 5349 5347 5345 5343 5342 5340 5339 5338 5337 5336 5336 5336 5335 5335 5335 5334 5334 5333 5333 5333 5333 5334 5334 5335 5336 5339 5342 5344 5343 5343 5344 5344 5345 5346 5348 5349 5351 5353
5350 5348 5345 5342 5340 5338 5336 5334 5332 5331 5329 5328 5328 5327 5326 5326 5326 5326 5326 5325 5325 5324 5324 5324 5323 5324 5325 5326 5327 5328 5331 5335 5336 5334 5334 5334 5334 5336 5338 5340 5341 5343
5341 5338 5336 5333 5330 5328 5327 5325 5323 5321 5320 5319 5318 5317 5317 5317 5317 5316 5316 5316 5316 5316 5315 5315 5314 5314 5315 5316 5317 5317 5319 5326 5330 5327 5325 5324 5325 5326 5328 5330 5332 5333
5332 5330 5327 5324 5321 5319 5317 5316 5314 5312 5311 5309 5309 5308 5307 5307 5307 5307 5307 5307 5307 5307 5307 5306 5306 5306 5306 5306 5308 5308 5309 5315 5321 5319 5315 5315 5316 5317 5318 5320 5322 5323
5323 5321 5319 5315 5312 5310 5308 5306 5305 5303 5302 5300 5299 5299 5298 5297 5297 5298 5298 5297 5297 5297 5298 5297 5296 5297 5298 5297 5298 5299 5299 5305 5311 5309 5306 5306 5308 5308 5308 5309 5311 5313
5314 5312 5310 5307 5304 5301 5300 5298 5296 5294 5292 5291 5290 5289 5288 5288 5288 5288 5288 5288 5288 5288 5289 5288 5287 5287 5288 5289 5289 5289 5291 5295 5300 5300 5299 5299 5298 5298 5299 5300 5301 5303
5305 5303 5301 5298 5295 5293 5291 5289 5287 5285 5283 5282 5281 5280 5279 5278 5278 5278 5278 5278 5278 5278 5279 5279 5278 5277 5277 5279 5279 5280 5282 5286 5289 5290 5291 5290 5289 5289 5289 5290 5291 5292
5296 5294 5291 5289 5286 5284 5282 5280 5278 5276 5275 5273 5272 5271 5270 5269 5269 5268 5268 5268 5268 5268 5268 5269 5269 5267 5267 5268 5269 5270 5272 5276 5279 5281 5282 5281 5280 5280 5280 5281 5282 5283
5287 5284 5282 5279 5277 5275 5273 5271 5269 5267 5266 5264 5263 5262 5261 5260 5259 5259 5259 5258 5257 5257 5257 5258 5259 5258 5257 5258 5259 5259 5261 5264 5268 5271 5271 5271 5272 5271 5270 5271 5272 5273
5278 5275 5273 5270 5268 5266 5264 5261 5259 5258 5257 5255 5254 5253 5252 5251 5250 5249 5249 5248 5247 5247 5247 5247 5248 5248 5247 5247 5248 5249 5250 5253 5257 5259 5260 5261 5263 5263 5261 5261 5262 5264